Flag for Canada Weather past 2 weeks in Charlottetown, Prince Edward Island, Canada

Now
68 °F

Partly sunny.


Feels Like: 68 °F
Forecast: 52 / 77 °F
Wind: 9 mph from Southwest

Location: Charlottetown

Current Time: Sep 2, 2015 at 12:47:25 PM

Latest Report: Sep 2, 2015 at 12:00 PM


Visibility: 15 mi

Pressure: 29.86 "Hg

Humidity: 73%

Dew point: 59 °F

Location of CharlottetownLocation

Historic Weather in Charlottetown — Graph

°F

Charlottetown temperature yesterday

Maximum temperature yesterday: 63 °F (at 12:00 AM)
Minimum temperature yesterday: 50 °F (at 10:00 PM)
Average temperature yesterday: 57 °F

Past Weeks' High & Low Weather Summary

 TemperatureHumidityPressure
High86 °F (Aug 18, 2:15 PM)100% (Aug 20, 2:00 AM)30.23 "Hg (Aug 20, 2:00 AM)
Low48 °F (Sep 2, 12:00 AM)48% (Aug 19, 4:00 PM)29.59 "Hg (Aug 31, 7:00 PM)
Average69 °F84%30.00 "Hg
* Reported Aug 18 11:00 AM — Sep 2 11:00 AM, Charlottetown, Weather by CustomWeather, © 2015

Note: Actual official high and low records may vary slightly from our data, if they occured in-between our weather recording intervals... More about our weather records

Advertising

Charlottetown weather history for previous 24 hours

 ConditionsComfort  
Time TempWeatherWind HumidityBarometerVisibility
11:00 AM
Wed, Sep 2
66 °FMore clouds than sun.15 mph73%29.88 "Hg15 mi
10:00 AM63 °FMostly cloudy.13 mph83%29.90 "Hg15 mi
9:00 AM61 °FMostly cloudy.10 mph83%29.92 "Hg15 mi
8:00 AM59 °FCool.9 mph82%29.93 "Hg15 mi
7:00 AM55 °FOvercast.8 mph88%29.93 "Hg15 mi
6:00 AM55 °FOvercast.8 mph88%29.94 "Hg15 mi
5:00 AM54 °FOvercast.5 mph94%29.96 "Hg15 mi
4:00 AM52 °FOvercast.5 mph88%29.97 "Hg15 mi
3:00 AM50 °FPassing clouds.3 mph94%29.98 "Hg15 mi
2:00 AM50 °FPassing clouds.5 mph94%30.00 "Hg15 mi
1:00 AM48 °FPassing clouds.5 mph87%30.00 "Hg15 mi
12:00 AM48 °FPassing clouds.2 mph94%30.01 "Hg15 mi
11:00 PM
Tue, Sep 1
50 °FPassing clouds.5 mph94%30.02 "Hg15 mi
10:00 PM50 °FPassing clouds.2 mph94%30.02 "Hg15 mi
9:00 PM52 °FPassing clouds.5 mph88%30.01 "Hg15 mi
8:00 PM52 °FPartly sunny.3 mph88%30.01 "Hg15 mi
7:00 PM55 °FScattered clouds.6 mph77%30.00 "Hg15 mi
6:00 PM57 °FPartly sunny.9 mph72%29.99 "Hg15 mi
5:00 PM57 °FPartly sunny.10 mph72%29.98 "Hg15 mi
4:00 PM57 °FPartly sunny.14 mph72%29.98 "Hg15 mi
3:00 PM57 °FOvercast.14 mph77%29.96 "Hg15 mi
2:00 PM57 °FOvercast.15 mph77%29.95 "Hg15 mi
1:00 PM57 °FOvercast.17 mph72%29.95 "Hg15 mi
12:00 PM57 °FOvercast.17 mph72%29.94 "Hg15 mi
Weather by CustomWeather, © 2015

See weather overviewHow to use our weather pages